#datetime,building,power
2022-01-21T00:00:00,sdl,17.52
2022-01-21T00:01:00,sdl,17.49
2022-01-21T00:02:00,sdl,17.52
2022-01-21T00:03:00,sdl,17.46
2022-01-21T00:04:00,sdl,17.42
2022-01-21T00:05:00,sdl,17.44
2022-01-21T00:06:00,sdl,16.97
2022-01-21T00:07:00,sdl,16.80
2022-01-21T00:08:00,sdl,16.77
2022-01-21T00:09:00,sdl,22.31
2022-01-21T00:10:00,sdl,21.05
2022-01-21T00:11:00,sdl,21.05
2022-01-21T00:12:00,sdl,21.01
2022-01-21T00:13:00,sdl,23.34
2022-01-21T00:14:00,sdl,23.28
2022-01-21T00:15:00,sdl,23.23
2022-01-21T00:16:00,sdl,23.29
2022-01-21T00:17:00,sdl,23.18
2022-01-21T00:18:00,sdl,23.11
2022-01-21T00:19:00,sdl,23.13
2022-01-21T00:20:00,sdl,23.23
2022-01-21T00:21:00,sdl,23.12
2022-01-21T00:22:00,sdl,23.10
2022-01-21T00:23:00,sdl,20.98
2022-01-21T00:24:00,sdl,20.91
2022-01-21T00:25:00,sdl,21.71
2022-01-21T00:26:00,sdl,21.35
2022-01-21T00:27:00,sdl,20.91
2022-01-21T00:28:00,sdl,20.87
2022-01-21T00:29:00,sdl,20.79
2022-01-21T00:30:00,sdl,20.69
2022-01-21T00:31:00,sdl,20.63
2022-01-21T00:32:00,sdl,16.69
2022-01-21T00:33:00,sdl,16.58
2022-01-21T00:34:00,sdl,16.55
2022-01-21T00:35:00,sdl,16.59
2022-01-21T00:36:00,sdl,16.71
2022-01-21T00:37:00,sdl,18.97
2022-01-21T00:38:00,sdl,20.22
2022-01-21T00:39:00,sdl,19.54
2022-01-21T00:40:00,sdl,19.45
2022-01-21T00:41:00,sdl,19.51
2022-01-21T00:42:00,sdl,19.51
2022-01-21T00:43:00,sdl,19.45
2022-01-21T00:44:00,sdl,19.43
2022-01-21T00:45:00,sdl,19.29
2022-01-21T00:46:00,sdl,23.69
2022-01-21T00:47:00,sdl,23.66
2022-01-21T00:48:00,sdl,23.59
2022-01-21T00:49:00,sdl,23.56
2022-01-21T00:50:00,sdl,24.64
2022-01-21T00:51:00,sdl,23.63
2022-01-21T00:52:00,sdl,23.96
2022-01-21T00:53:00,sdl,23.70
2022-01-21T00:54:00,sdl,21.48
2022-01-21T00:55:00,sdl,21.74
2022-01-21T00:56:00,sdl,21.73
2022-01-21T00:57:00,sdl,21.31
2022-01-21T00:58:00,sdl,21.17
2022-01-21T00:59:00,sdl,21.23
2022-01-21T01:00:00,sdl,21.37
2022-01-21T01:01:00,sdl,21.31
2022-01-21T01:02:00,sdl,22.36
2022-01-21T01:03:00,sdl,21.63
2022-01-21T01:04:00,sdl,21.05
2022-01-21T01:05:00,sdl,21.06
2022-01-21T01:06:00,sdl,21.19
2022-01-21T01:07:00,sdl,16.67
2022-01-21T01:08:00,sdl,16.47
2022-01-21T01:09:00,sdl,16.91
2022-01-21T01:10:00,sdl,16.56
2022-01-21T01:11:00,sdl,16.54
2022-01-21T01:12:00,sdl,16.56
2022-01-21T01:13:00,sdl,16.55
2022-01-21T01:14:00,sdl,16.50
2022-01-21T01:15:00,sdl,16.35
2022-01-21T01:16:00,sdl,16.43
2022-01-21T01:17:00,sdl,16.50
2022-01-21T01:18:00,sdl,16.50
2022-01-21T01:19:00,sdl,16.43
2022-01-21T01:20:00,sdl,22.97
2022-01-21T01:21:00,sdl,22.94
2022-01-21T01:22:00,sdl,23.09
2022-01-21T01:23:00,sdl,23.38
2022-01-21T01:24:00,sdl,23.07
2022-01-21T01:25:00,sdl,22.95
2022-01-21T01:26:00,sdl,23.04
2022-01-21T01:27:00,sdl,23.44
2022-01-21T01:28:00,sdl,23.44
2022-01-21T01:29:00,sdl,23.86
2022-01-21T01:30:00,sdl,22.99
2022-01-21T01:31:00,sdl,23.12
2022-01-21T01:32:00,sdl,23.00
2022-01-21T01:33:00,sdl,23.00
2022-01-21T01:34:00,sdl,23.16
2022-01-21T01:35:00,sdl,20.89
2022-01-21T01:36:00,sdl,21.05
2022-01-21T01:37:00,sdl,20.95
2022-01-21T01:38:00,sdl,21.03
2022-01-21T01:39:00,sdl,20.90
2022-01-21T01:40:00,sdl,20.87
2022-01-21T01:41:00,sdl,20.83
2022-01-21T01:42:00,sdl,17.24
2022-01-21T01:43:00,sdl,16.67
2022-01-21T01:44:00,sdl,16.63
2022-01-21T01:45:00,sdl,16.72
2022-01-21T01:46:00,sdl,16.63
2022-01-21T01:47:00,sdl,16.74
2022-01-21T01:48:00,sdl,16.82
2022-01-21T01:49:00,sdl,18.94
2022-01-21T01:50:00,sdl,18.79
2022-01-21T01:51:00,sdl,19.23
2022-01-21T01:52:00,sdl,19.11
2022-01-21T01:53:00,sdl,19.29
2022-01-21T01:54:00,sdl,23.36
2022-01-21T01:55:00,sdl,23.25
2022-01-21T01:56:00,sdl,23.73
2022-01-21T01:57:00,sdl,23.88
2022-01-21T01:58:00,sdl,23.50
2022-01-21T01:59:00,sdl,23.61
2022-01-21T02:00:00,sdl,21.52
2022-01-21T02:01:00,sdl,21.38
2022-01-21T02:02:00,sdl,22.00
2022-01-21T02:03:00,sdl,21.55
2022-01-21T02:04:00,sdl,21.52
2022-01-21T02:05:00,sdl,21.51
2022-01-21T02:06:00,sdl,21.48
2022-01-21T02:07:00,sdl,21.53
2022-01-21T02:08:00,sdl,21.28
2022-01-21T02:09:00,sdl,21.31
2022-01-21T02:10:00,sdl,21.25
2022-01-21T02:11:00,sdl,21.33
2022-01-21T02:12:00,sdl,21.38
2022-01-21T02:13:00,sdl,21.34
2022-01-21T02:14:00,sdl,21.30
2022-01-21T02:15:00,sdl,21.40
2022-01-21T02:16:00,sdl,21.06
2022-01-21T02:17:00,sdl,21.49
2022-01-21T02:18:00,sdl,21.06
2022-01-21T02:19:00,sdl,21.43
2022-01-21T02:20:00,sdl,24.51
2022-01-21T02:21:00,sdl,23.09
2022-01-21T02:22:00,sdl,22.96
2022-01-21T02:23:00,sdl,23.09
2022-01-21T02:24:00,sdl,23.14
2022-01-21T02:25:00,sdl,23.09
2022-01-21T02:26:00,sdl,23.53
2022-01-21T02:27:00,sdl,23.47
2022-01-21T02:28:00,sdl,23.11
2022-01-21T02:29:00,sdl,22.94
2022-01-21T02:30:00,sdl,23.02
2022-01-21T02:31:00,sdl,23.35
2022-01-21T02:32:00,sdl,22.98
2022-01-21T02:33:00,sdl,23.10
2022-01-21T02:34:00,sdl,23.25
2022-01-21T02:35:00,sdl,23.20
2022-01-21T02:36:00,sdl,23.19
2022-01-21T02:37:00,sdl,21.16
2022-01-21T02:38:00,sdl,22.89
2022-01-21T02:39:00,sdl,20.85
2022-01-21T02:40:00,sdl,20.73
2022-01-21T02:41:00,sdl,20.71
2022-01-21T02:42:00,sdl,20.65
2022-01-21T02:43:00,sdl,20.68
2022-01-21T02:44:00,sdl,20.57
2022-01-21T02:45:00,sdl,20.59
2022-01-21T02:46:00,sdl,20.60
2022-01-21T02:47:00,sdl,20.60
2022-01-21T02:48:00,sdl,20.73
2022-01-21T02:49:00,sdl,20.66
2022-01-21T02:50:00,sdl,20.57
2022-01-21T02:51:00,sdl,20.70
2022-01-21T02:52:00,sdl,20.66
2022-01-21T02:53:00,sdl,21.14
2022-01-21T02:54:00,sdl,20.66
2022-01-21T02:55:00,sdl,20.58
2022-01-21T02:56:00,sdl,20.93
2022-01-21T02:57:00,sdl,20.98
2022-01-21T02:58:00,sdl,20.69
2022-01-21T02:59:00,sdl,23.54
2022-01-21T03:00:00,sdl,23.71
2022-01-21T03:01:00,sdl,23.61
2022-01-21T03:02:00,sdl,23.65
2022-01-21T03:03:00,sdl,23.47
2022-01-21T03:04:00,sdl,23.55
2022-01-21T03:05:00,sdl,23.36
2022-01-21T03:06:00,sdl,23.43
2022-01-21T03:07:00,sdl,23.44
2022-01-21T03:08:00,sdl,23.33
2022-01-21T03:09:00,sdl,21.04
2022-01-21T03:10:00,sdl,21.14
2022-01-21T03:11:00,sdl,21.11
2022-01-21T03:12:00,sdl,21.14
2022-01-21T03:13:00,sdl,21.38
2022-01-21T03:14:00,sdl,21.43
2022-01-21T03:15:00,sdl,21.43
2022-01-21T03:16:00,sdl,21.42
2022-01-21T03:17:00,sdl,21.42
2022-01-21T03:18:00,sdl,21.27
2022-01-21T03:19:00,sdl,21.25
2022-01-21T03:20:00,sdl,21.11
2022-01-21T03:21:00,sdl,21.81
2022-01-21T03:22:00,sdl,22.34
2022-01-21T03:23:00,sdl,23.37
2022-01-21T03:24:00,sdl,23.28
2022-01-21T03:25:00,sdl,23.52
2022-01-21T03:26:00,sdl,23.61
2022-01-21T03:27:00,sdl,23.13
2022-01-21T03:28:00,sdl,23.04
2022-01-21T03:29:00,sdl,22.99
2022-01-21T03:30:00,sdl,23.71
2022-01-21T03:31:00,sdl,23.06
2022-01-21T03:32:00,sdl,22.98
2022-01-21T03:33:00,sdl,23.51
2022-01-21T03:34:00,sdl,23.01
2022-01-21T03:35:00,sdl,22.96
2022-01-21T03:36:00,sdl,23.09
2022-01-21T03:37:00,sdl,22.96
2022-01-21T03:38:00,sdl,20.86
2022-01-21T03:39:00,sdl,20.59
2022-01-21T03:40:00,sdl,20.60
2022-01-21T03:41:00,sdl,20.67
2022-01-21T03:42:00,sdl,20.69
2022-01-21T03:43:00,sdl,20.68
2022-01-21T03:44:00,sdl,20.75
2022-01-21T03:45:00,sdl,21.86
2022-01-21T03:46:00,sdl,20.63
2022-01-21T03:47:00,sdl,20.56
2022-01-21T03:48:00,sdl,20.53
2022-01-21T03:49:00,sdl,20.71
2022-01-21T03:50:00,sdl,20.81
2022-01-21T03:51:00,sdl,20.99
2022-01-21T03:52:00,sdl,20.80
2022-01-21T03:53:00,sdl,20.93
2022-01-21T03:54:00,sdl,20.86
2022-01-21T03:55:00,sdl,21.37
2022-01-21T03:56:00,sdl,21.22
2022-01-21T03:57:00,sdl,20.70
2022-01-21T03:58:00,sdl,20.60
2022-01-21T03:59:00,sdl,21.86
2022-01-21T04:00:00,sdl,20.76
2022-01-21T04:01:00,sdl,20.72
2022-01-21T04:02:00,sdl,22.89
2022-01-21T04:03:00,sdl,22.93
2022-01-21T04:04:00,sdl,23.83
2022-01-21T04:05:00,sdl,23.32
2022-01-21T04:06:00,sdl,23.34
2022-01-21T04:07:00,sdl,23.26
2022-01-21T04:08:00,sdl,23.32
2022-01-21T04:09:00,sdl,23.36
2022-01-21T04:10:00,sdl,23.24
2022-01-21T04:11:00,sdl,23.38
2022-01-21T04:12:00,sdl,23.14
2022-01-21T04:13:00,sdl,23.22
2022-01-21T04:14:00,sdl,23.21
2022-01-21T04:15:00,sdl,23.33
2022-01-21T04:16:00,sdl,20.98
2022-01-21T04:17:00,sdl,20.96
2022-01-21T04:18:00,sdl,20.84
2022-01-21T04:19:00,sdl,20.83
2022-01-21T04:20:00,sdl,20.75
2022-01-21T04:21:00,sdl,20.91
2022-01-21T04:22:00,sdl,20.93
2022-01-21T04:23:00,sdl,21.00
2022-01-21T04:24:00,sdl,21.39
2022-01-21T04:25:00,sdl,21.60
2022-01-21T04:26:00,sdl,21.21
2022-01-21T04:27:00,sdl,20.99
2022-01-21T04:28:00,sdl,21.04
2022-01-21T04:29:00,sdl,22.98
2022-01-21T04:30:00,sdl,22.71
2022-01-21T04:31:00,sdl,22.45
2022-01-21T04:32:00,sdl,22.41
2022-01-21T04:33:00,sdl,22.47
2022-01-21T04:34:00,sdl,22.46
2022-01-21T04:35:00,sdl,22.61
2022-01-21T04:36:00,sdl,22.58
2022-01-21T04:37:00,sdl,22.73
2022-01-21T04:38:00,sdl,22.70
2022-01-21T04:39:00,sdl,22.62
2022-01-21T04:40:00,sdl,23.16
2022-01-21T04:41:00,sdl,23.21
2022-01-21T04:42:00,sdl,20.29
2022-01-21T04:43:00,sdl,20.23
2022-01-21T04:44:00,sdl,20.36
2022-01-21T04:45:00,sdl,20.33
2022-01-21T04:46:00,sdl,20.29
2022-01-21T04:47:00,sdl,20.17
2022-01-21T04:48:00,sdl,20.34
2022-01-21T04:49:00,sdl,20.27
2022-01-21T04:50:00,sdl,20.37
2022-01-21T04:51:00,sdl,20.39
2022-01-21T04:52:00,sdl,20.24
2022-01-21T04:53:00,sdl,20.34
2022-01-21T04:54:00,sdl,20.35
2022-01-21T04:55:00,sdl,20.16
2022-01-21T04:56:00,sdl,20.54
2022-01-21T04:57:00,sdl,20.76
2022-01-21T04:58:00,sdl,20.32
2022-01-21T04:59:00,sdl,20.20
2022-01-21T05:00:00,sdl,20.19
2022-01-21T05:01:00,sdl,20.16
2022-01-21T05:02:00,sdl,22.45
2022-01-21T05:03:00,sdl,22.43
2022-01-21T05:04:00,sdl,22.42
2022-01-21T05:05:00,sdl,22.42
2022-01-21T05:06:00,sdl,22.52
2022-01-21T05:07:00,sdl,22.42
2022-01-21T05:08:00,sdl,22.34
2022-01-21T05:09:00,sdl,22.76
2022-01-21T05:10:00,sdl,22.82
2022-01-21T05:11:00,sdl,22.71
2022-01-21T05:12:00,sdl,22.67
2022-01-21T05:13:00,sdl,22.78
2022-01-21T05:14:00,sdl,22.75
2022-01-21T05:15:00,sdl,23.26
2022-01-21T05:16:00,sdl,22.83
2022-01-21T05:17:00,sdl,22.68
2022-01-21T05:18:00,sdl,22.77
2022-01-21T05:19:00,sdl,20.39
2022-01-21T05:20:00,sdl,21.02
2022-01-21T05:21:00,sdl,20.50
2022-01-21T05:22:00,sdl,20.47
2022-01-21T05:23:00,sdl,20.54
2022-01-21T05:24:00,sdl,20.59
2022-01-21T05:25:00,sdl,20.45
2022-01-21T05:26:00,sdl,20.70
2022-01-21T05:27:00,sdl,20.62
2022-01-21T05:28:00,sdl,20.71
2022-01-21T05:29:00,sdl,20.30
2022-01-21T05:30:00,sdl,20.97
2022-01-21T05:31:00,sdl,21.19
2022-01-21T05:32:00,sdl,20.68
2022-01-21T05:33:00,sdl,20.35
2022-01-21T05:34:00,sdl,22.54
2022-01-21T05:35:00,sdl,22.55
2022-01-21T05:36:00,sdl,22.48
2022-01-21T05:37:00,sdl,22.54
2022-01-21T05:38:00,sdl,22.51
2022-01-21T05:39:00,sdl,22.51
2022-01-21T05:40:00,sdl,22.54
2022-01-21T05:41:00,sdl,22.38
2022-01-21T05:42:00,sdl,22.57
2022-01-21T05:43:00,sdl,22.59
2022-01-21T05:44:00,sdl,20.67
2022-01-21T05:45:00,sdl,20.54
2022-01-21T05:46:00,sdl,20.63
2022-01-21T05:47:00,sdl,20.75
2022-01-21T05:48:00,sdl,20.66
2022-01-21T05:49:00,sdl,21.26
2022-01-21T05:50:00,sdl,20.66
2022-01-21T05:51:00,sdl,20.59
2022-01-21T05:52:00,sdl,20.64
2022-01-21T05:53:00,sdl,20.69
2022-01-21T05:54:00,sdl,20.57
2022-01-21T05:55:00,sdl,20.69
2022-01-21T05:56:00,sdl,20.66
2022-01-21T05:57:00,sdl,20.58
2022-01-21T05:58:00,sdl,20.66
2022-01-21T05:59:00,sdl,22.91
2022-01-21T06:00:00,sdl,22.94
2022-01-21T06:01:00,sdl,23.45
2022-01-21T06:02:00,sdl,23.20
2022-01-21T06:03:00,sdl,23.25
2022-01-21T06:04:00,sdl,22.72
2022-01-21T06:05:00,sdl,22.90
2022-01-21T06:06:00,sdl,23.09
2022-01-21T06:07:00,sdl,23.01
2022-01-21T06:08:00,sdl,22.89
2022-01-21T06:09:00,sdl,23.01
2022-01-21T06:10:00,sdl,24.89
2022-01-21T06:11:00,sdl,23.53
2022-01-21T06:12:00,sdl,23.54
2022-01-21T06:13:00,sdl,23.36
2022-01-21T06:14:00,sdl,23.42
2022-01-21T06:15:00,sdl,24.50
2022-01-21T06:16:00,sdl,23.17
2022-01-21T06:17:00,sdl,21.26
2022-01-21T06:18:00,sdl,21.21
2022-01-21T06:19:00,sdl,21.05
2022-01-21T06:20:00,sdl,21.34
2022-01-21T06:21:00,sdl,21.46
2022-01-21T06:22:00,sdl,22.53
2022-01-21T06:23:00,sdl,21.30
2022-01-21T06:24:00,sdl,20.54
2022-01-21T06:25:00,sdl,20.99
2022-01-21T06:26:00,sdl,20.89
2022-01-21T06:27:00,sdl,20.69
2022-01-21T06:28:00,sdl,20.80
2022-01-21T06:29:00,sdl,20.64
2022-01-21T06:30:00,sdl,20.64
2022-01-21T06:31:00,sdl,20.47
2022-01-21T06:32:00,sdl,20.19
2022-01-21T06:33:00,sdl,20.04
2022-01-21T06:34:00,sdl,20.49
2022-01-21T06:35:00,sdl,20.43
2022-01-21T06:36:00,sdl,20.34
2022-01-21T06:37:00,sdl,20.30
2022-01-21T06:38:00,sdl,22.61
2022-01-21T06:39:00,sdl,22.54
2022-01-21T06:40:00,sdl,22.78
2022-01-21T06:41:00,sdl,23.96
2022-01-21T06:42:00,sdl,22.76
2022-01-21T06:43:00,sdl,22.66
2022-01-21T06:44:00,sdl,22.69
2022-01-21T06:45:00,sdl,22.68
2022-01-21T06:46:00,sdl,22.73
2022-01-21T06:47:00,sdl,22.57
2022-01-21T06:48:00,sdl,22.65
2022-01-21T06:49:00,sdl,20.24
2022-01-21T06:50:00,sdl,20.14
2022-01-21T06:51:00,sdl,20.20
2022-01-21T06:52:00,sdl,20.41
2022-01-21T06:53:00,sdl,20.39
2022-01-21T06:54:00,sdl,20.33
2022-01-21T06:55:00,sdl,20.49
2022-01-21T06:56:00,sdl,20.03
2022-01-21T06:57:00,sdl,19.85
2022-01-21T06:58:00,sdl,19.94
2022-01-21T06:59:00,sdl,20.90
2022-01-21T07:00:00,sdl,20.37
2022-01-21T07:01:00,sdl,20.00
2022-01-21T07:02:00,sdl,19.97
2022-01-21T07:03:00,sdl,22.10
2022-01-21T07:04:00,sdl,22.21
2022-01-21T07:05:00,sdl,22.38
2022-01-21T07:06:00,sdl,22.45
2022-01-21T07:07:00,sdl,22.29
2022-01-21T07:08:00,sdl,19.91
2022-01-21T07:09:00,sdl,20.09
2022-01-21T07:10:00,sdl,21.20
2022-01-21T07:11:00,sdl,22.25
2022-01-21T07:12:00,sdl,22.16
2022-01-21T07:13:00,sdl,22.17
2022-01-21T07:14:00,sdl,22.01
2022-01-21T07:15:00,sdl,22.94
2022-01-21T07:16:00,sdl,23.03
2022-01-21T07:17:00,sdl,23.64
2022-01-21T07:18:00,sdl,23.18
2022-01-21T07:19:00,sdl,23.21
2022-01-21T07:20:00,sdl,21.01
2022-01-21T07:21:00,sdl,20.74
2022-01-21T07:22:00,sdl,20.90
2022-01-21T07:23:00,sdl,19.89
2022-01-21T07:24:00,sdl,20.02
2022-01-21T07:25:00,sdl,19.91
2022-01-21T07:26:00,sdl,20.01
2022-01-21T07:27:00,sdl,19.99
2022-01-21T07:28:00,sdl,20.50
2022-01-21T07:29:00,sdl,20.58
2022-01-21T07:30:00,sdl,20.45
2022-01-21T07:31:00,sdl,20.54
2022-01-21T07:32:00,sdl,21.34
2022-01-21T07:33:00,sdl,20.80
2022-01-21T07:34:00,sdl,20.32
2022-01-21T07:35:00,sdl,20.38
2022-01-21T07:36:00,sdl,20.52
2022-01-21T07:37:00,sdl,20.48
2022-01-21T07:38:00,sdl,20.33
2022-01-21T07:39:00,sdl,20.32
2022-01-21T07:40:00,sdl,20.38
2022-01-21T07:41:00,sdl,20.47
2022-01-21T07:42:00,sdl,20.52
2022-01-21T07:43:00,sdl,22.56
2022-01-21T07:44:00,sdl,23.63
2022-01-21T07:45:00,sdl,22.62
2022-01-21T07:46:00,sdl,22.61
2022-01-21T07:47:00,sdl,22.65
2022-01-21T07:48:00,sdl,22.56
2022-01-21T07:49:00,sdl,22.64
2022-01-21T07:50:00,sdl,22.72
2022-01-21T07:51:00,sdl,22.40
2022-01-21T07:52:00,sdl,22.41
2022-01-21T07:53:00,sdl,24.19
2022-01-21T07:54:00,sdl,22.36
2022-01-21T07:55:00,sdl,22.12
2022-01-21T07:56:00,sdl,22.30
2022-01-21T07:57:00,sdl,22.15
2022-01-21T07:58:00,sdl,22.77
2022-01-21T07:59:00,sdl,25.02
2022-01-21T08:00:00,sdl,21.93
2022-01-21T08:01:00,sdl,21.64
2022-01-21T08:02:00,sdl,21.53
2022-01-21T08:03:00,sdl,21.53
2022-01-21T08:04:00,sdl,21.85
2022-01-21T08:05:00,sdl,21.70
2022-01-21T08:06:00,sdl,21.55
2022-01-21T08:07:00,sdl,21.22
2022-01-21T08:08:00,sdl,20.17
2022-01-21T08:09:00,sdl,20.04
2022-01-21T08:10:00,sdl,20.02
2022-01-21T08:11:00,sdl,19.85
2022-01-21T08:12:00,sdl,19.95
2022-01-21T08:13:00,sdl,22.16
2022-01-21T08:14:00,sdl,22.16
2022-01-21T08:15:00,sdl,22.15
2022-01-21T08:16:00,sdl,22.10
2022-01-21T08:17:00,sdl,22.25
2022-01-21T08:18:00,sdl,22.33
2022-01-21T08:19:00,sdl,22.23
2022-01-21T08:20:00,sdl,22.27
2022-01-21T08:21:00,sdl,22.45
2022-01-21T08:22:00,sdl,22.82
2022-01-21T08:23:00,sdl,22.82
2022-01-21T08:24:00,sdl,20.53
2022-01-21T08:25:00,sdl,20.74
2022-01-21T08:26:00,sdl,20.67
2022-01-21T08:27:00,sdl,21.39
2022-01-21T08:28:00,sdl,21.21
2022-01-21T08:29:00,sdl,22.50
2022-01-21T08:30:00,sdl,21.72
2022-01-21T08:31:00,sdl,20.98
2022-01-21T08:32:00,sdl,20.93
2022-01-21T08:33:00,sdl,21.10
2022-01-21T08:34:00,sdl,20.98
2022-01-21T08:35:00,sdl,21.08
2022-01-21T08:36:00,sdl,21.03
2022-01-21T08:37:00,sdl,22.26
2022-01-21T08:38:00,sdl,21.09
2022-01-21T08:39:00,sdl,21.12
2022-01-21T08:40:00,sdl,21.08
2022-01-21T08:41:00,sdl,21.50
2022-01-21T08:42:00,sdl,23.29
2022-01-21T08:43:00,sdl,23.58
2022-01-21T08:44:00,sdl,23.66
2022-01-21T08:45:00,sdl,23.79
2022-01-21T08:46:00,sdl,24.94
2022-01-21T08:47:00,sdl,25.43
2022-01-21T08:48:00,sdl,25.54
2022-01-21T08:49:00,sdl,25.23
2022-01-21T08:50:00,sdl,25.26
2022-01-21T08:51:00,sdl,25.46
2022-01-21T08:52:00,sdl,25.23
2022-01-21T08:53:00,sdl,26.49
2022-01-21T08:54:00,sdl,25.22
2022-01-21T08:55:00,sdl,25.70
2022-01-21T08:56:00,sdl,24.83
2022-01-21T08:57:00,sdl,24.47
2022-01-21T08:58:00,sdl,24.69
2022-01-21T08:59:00,sdl,22.57
2022-01-21T09:00:00,sdl,23.82
2022-01-21T09:01:00,sdl,25.07
2022-01-21T09:02:00,sdl,23.38
2022-01-21T09:03:00,sdl,23.46
2022-01-21T09:04:00,sdl,23.36
2022-01-21T09:05:00,sdl,23.39
2022-01-21T09:06:00,sdl,23.33
2022-01-21T09:07:00,sdl,23.38
2022-01-21T09:08:00,sdl,22.43
2022-01-21T09:09:00,sdl,23.59
2022-01-21T09:10:00,sdl,23.64
2022-01-21T09:11:00,sdl,23.68
2022-01-21T09:12:00,sdl,38.47
2022-01-21T09:13:00,sdl,23.61
2022-01-21T09:14:00,sdl,26.10
2022-01-21T09:15:00,sdl,26.01
2022-01-21T09:16:00,sdl,27.44
2022-01-21T09:17:00,sdl,25.92
2022-01-21T09:18:00,sdl,25.73
2022-01-21T09:19:00,sdl,26.03
2022-01-21T09:20:00,sdl,26.59
2022-01-21T09:21:00,sdl,25.93
2022-01-21T09:22:00,sdl,25.97
2022-01-21T09:23:00,sdl,26.30
2022-01-21T09:24:00,sdl,24.38
2022-01-21T09:25:00,sdl,24.37
2022-01-21T09:26:00,sdl,24.40
2022-01-21T09:27:00,sdl,24.83
2022-01-21T09:28:00,sdl,24.97
2022-01-21T09:29:00,sdl,24.55
2022-01-21T09:30:00,sdl,24.60
2022-01-21T09:31:00,sdl,24.72
2022-01-21T09:32:00,sdl,24.52
2022-01-21T09:33:00,sdl,24.57
2022-01-21T09:34:00,sdl,24.43
2022-01-21T09:35:00,sdl,24.48
2022-01-21T09:36:00,sdl,24.25
2022-01-21T09:37:00,sdl,23.49
2022-01-21T09:38:00,sdl,27.15
2022-01-21T09:39:00,sdl,27.28
2022-01-21T09:40:00,sdl,26.49
2022-01-21T09:41:00,sdl,26.64
2022-01-21T09:42:00,sdl,26.68
2022-01-21T09:43:00,sdl,27.11
2022-01-21T09:44:00,sdl,26.43
2022-01-21T09:45:00,sdl,26.52
2022-01-21T09:46:00,sdl,26.77
2022-01-21T09:47:00,sdl,26.37
2022-01-21T09:48:00,sdl,26.28
2022-01-21T09:49:00,sdl,26.30
2022-01-21T09:50:00,sdl,27.03
2022-01-21T09:51:00,sdl,26.46
2022-01-21T09:52:00,sdl,25.00
2022-01-21T09:53:00,sdl,24.34
2022-01-21T09:54:00,sdl,23.12
2022-01-21T09:55:00,sdl,23.24
2022-01-21T09:56:00,sdl,23.32
2022-01-21T09:57:00,sdl,23.31
2022-01-21T09:58:00,sdl,21.12
2022-01-21T09:59:00,sdl,23.17
2022-01-21T10:00:00,sdl,22.09
2022-01-21T10:01:00,sdl,21.95
2022-01-21T10:02:00,sdl,22.57
2022-01-21T10:03:00,sdl,22.34
2022-01-21T10:04:00,sdl,22.11
2022-01-21T10:05:00,sdl,22.10
2022-01-21T10:06:00,sdl,37.75
2022-01-21T10:07:00,sdl,23.23
2022-01-21T10:08:00,sdl,22.54
2022-01-21T10:09:00,sdl,22.14
2022-01-21T10:10:00,sdl,22.25
2022-01-21T10:11:00,sdl,22.85
2022-01-21T10:12:00,sdl,22.40
2022-01-21T10:13:00,sdl,22.21
2022-01-21T10:14:00,sdl,22.84
2022-01-21T10:15:00,sdl,22.72
2022-01-21T10:16:00,sdl,22.38
2022-01-21T10:17:00,sdl,22.49
2022-01-21T10:18:00,sdl,22.78
2022-01-21T10:19:00,sdl,24.26
2022-01-21T10:20:00,sdl,25.26
2022-01-21T10:21:00,sdl,25.24
2022-01-21T10:22:00,sdl,25.24
2022-01-21T10:23:00,sdl,25.25
2022-01-21T10:24:00,sdl,25.33
2022-01-21T10:25:00,sdl,26.66
2022-01-21T10:26:00,sdl,25.74
2022-01-21T10:27:00,sdl,24.90
2022-01-21T10:28:00,sdl,24.93
2022-01-21T10:29:00,sdl,25.55
2022-01-21T10:30:00,sdl,25.45
2022-01-21T10:31:00,sdl,26.11
2022-01-21T10:32:00,sdl,39.73
2022-01-21T10:33:00,sdl,26.15
2022-01-21T10:34:00,sdl,26.13
2022-01-21T10:35:00,sdl,26.43
2022-01-21T10:36:00,sdl,27.72
2022-01-21T10:37:00,sdl,26.06
2022-01-21T10:38:00,sdl,26.67
2022-01-21T10:39:00,sdl,25.20
2022-01-21T10:40:00,sdl,25.05
2022-01-21T10:41:00,sdl,24.46
2022-01-21T10:42:00,sdl,24.89
2022-01-21T10:43:00,sdl,24.70
2022-01-21T10:44:00,sdl,23.71
2022-01-21T10:45:00,sdl,23.32
2022-01-21T10:46:00,sdl,23.26
2022-01-21T10:47:00,sdl,23.25
2022-01-21T10:48:00,sdl,23.24
2022-01-21T10:49:00,sdl,23.18
2022-01-21T10:50:00,sdl,25.59
2022-01-21T10:51:00,sdl,25.61
2022-01-21T10:52:00,sdl,25.55
2022-01-21T10:53:00,sdl,25.38
2022-01-21T10:54:00,sdl,25.31
2022-01-21T10:55:00,sdl,25.27
2022-01-21T10:56:00,sdl,26.38
2022-01-21T10:57:00,sdl,26.46
2022-01-21T10:58:00,sdl,26.39
2022-01-21T10:59:00,sdl,26.31
2022-01-21T11:00:00,sdl,26.85
2022-01-21T11:01:00,sdl,42.37
2022-01-21T11:02:00,sdl,26.18
2022-01-21T11:03:00,sdl,25.60
2022-01-21T11:04:00,sdl,25.64
2022-01-21T11:05:00,sdl,26.71
2022-01-21T11:06:00,sdl,25.28
2022-01-21T11:07:00,sdl,25.26
2022-01-21T11:08:00,sdl,26.27
2022-01-21T11:09:00,sdl,25.29
2022-01-21T11:10:00,sdl,25.29
2022-01-21T11:11:00,sdl,25.17
2022-01-21T11:12:00,sdl,25.19
2022-01-21T11:13:00,sdl,23.12
2022-01-21T11:14:00,sdl,23.27
2022-01-21T11:15:00,sdl,23.21
2022-01-21T11:16:00,sdl,23.13
2022-01-21T11:17:00,sdl,23.15
2022-01-21T11:18:00,sdl,23.26
2022-01-21T11:19:00,sdl,23.16
2022-01-21T11:20:00,sdl,23.09
2022-01-21T11:21:00,sdl,23.23
2022-01-21T11:22:00,sdl,23.22
2022-01-21T11:23:00,sdl,23.09
2022-01-21T11:24:00,sdl,22.72
2022-01-21T11:25:00,sdl,22.75
2022-01-21T11:26:00,sdl,22.68
2022-01-21T11:27:00,sdl,22.70
2022-01-21T11:28:00,sdl,22.72
2022-01-21T11:29:00,sdl,22.72
2022-01-21T11:30:00,sdl,23.37
2022-01-21T11:31:00,sdl,23.25
2022-01-21T11:32:00,sdl,25.45
2022-01-21T11:33:00,sdl,27.91
2022-01-21T11:34:00,sdl,27.63
2022-01-21T11:35:00,sdl,27.64
2022-01-21T11:36:00,sdl,28.35
2022-01-21T11:37:00,sdl,27.29
2022-01-21T11:38:00,sdl,26.73
2022-01-21T11:39:00,sdl,26.78
2022-01-21T11:40:00,sdl,27.88
2022-01-21T11:41:00,sdl,26.67
2022-01-21T11:42:00,sdl,27.65
2022-01-21T11:43:00,sdl,27.78
2022-01-21T11:44:00,sdl,27.85
2022-01-21T11:45:00,sdl,27.56
2022-01-21T11:46:00,sdl,27.48
2022-01-21T11:47:00,sdl,27.48
2022-01-21T11:48:00,sdl,27.54
2022-01-21T11:49:00,sdl,27.47
2022-01-21T11:50:00,sdl,27.20
2022-01-21T11:51:00,sdl,27.08
2022-01-21T11:52:00,sdl,28.32
2022-01-21T11:53:00,sdl,27.20
2022-01-21T11:54:00,sdl,27.07
2022-01-21T11:55:00,sdl,27.02
2022-01-21T11:56:00,sdl,27.18
2022-01-21T11:57:00,sdl,27.23
2022-01-21T11:58:00,sdl,27.68
2022-01-21T11:59:00,sdl,27.65
2022-01-21T12:00:00,sdl,27.22
2022-01-21T12:01:00,sdl,25.09
2022-01-21T12:02:00,sdl,25.14
2022-01-21T12:03:00,sdl,25.24
2022-01-21T12:04:00,sdl,25.17
2022-01-21T12:05:00,sdl,25.20
2022-01-21T12:06:00,sdl,25.58
2022-01-21T12:07:00,sdl,24.97
2022-01-21T12:08:00,sdl,25.00
2022-01-21T12:09:00,sdl,24.95
2022-01-21T12:10:00,sdl,25.00
2022-01-21T12:11:00,sdl,24.93
2022-01-21T12:12:00,sdl,27.81
2022-01-21T12:13:00,sdl,27.26
2022-01-21T12:14:00,sdl,27.35
2022-01-21T12:15:00,sdl,27.28
2022-01-21T12:16:00,sdl,30.47
2022-01-21T12:17:00,sdl,28.64
2022-01-21T12:18:00,sdl,27.47
2022-01-21T12:19:00,sdl,27.30
2022-01-21T12:20:00,sdl,25.35
2022-01-21T12:21:00,sdl,25.19
2022-01-21T12:22:00,sdl,27.49
2022-01-21T12:23:00,sdl,28.10
2022-01-21T12:24:00,sdl,26.01
2022-01-21T12:25:00,sdl,26.06
2022-01-21T12:26:00,sdl,25.25
2022-01-21T12:27:00,sdl,25.52
2022-01-21T12:28:00,sdl,26.07
2022-01-21T12:29:00,sdl,25.14
2022-01-21T12:30:00,sdl,25.09
2022-01-21T12:31:00,sdl,25.06
2022-01-21T12:32:00,sdl,24.86
2022-01-21T12:33:00,sdl,25.34
2022-01-21T12:34:00,sdl,22.72
2022-01-21T12:35:00,sdl,22.76
2022-01-21T12:36:00,sdl,23.27
2022-01-21T12:37:00,sdl,22.87
2022-01-21T12:38:00,sdl,22.62
2022-01-21T12:39:00,sdl,21.89
2022-01-21T12:40:00,sdl,36.54
2022-01-21T12:41:00,sdl,22.21
2022-01-21T12:42:00,sdl,21.97
2022-01-21T12:43:00,sdl,22.00
2022-01-21T12:44:00,sdl,22.41
2022-01-21T12:45:00,sdl,22.27
2022-01-21T12:46:00,sdl,25.07
2022-01-21T12:47:00,sdl,23.97
2022-01-21T12:48:00,sdl,26.35
2022-01-21T12:49:00,sdl,25.74
2022-01-21T12:50:00,sdl,24.43
2022-01-21T12:51:00,sdl,22.46
2022-01-21T12:52:00,sdl,22.39
2022-01-21T12:53:00,sdl,23.37
2022-01-21T12:54:00,sdl,22.58
2022-01-21T12:55:00,sdl,22.36
2022-01-21T12:56:00,sdl,22.62
2022-01-21T12:57:00,sdl,22.95
2022-01-21T12:58:00,sdl,23.13
2022-01-21T12:59:00,sdl,22.66
2022-01-21T13:00:00,sdl,22.41
2022-01-21T13:01:00,sdl,22.38
2022-01-21T13:02:00,sdl,22.09
2022-01-21T13:03:00,sdl,20.26
2022-01-21T13:04:00,sdl,19.87
2022-01-21T13:05:00,sdl,19.79
2022-01-21T13:06:00,sdl,20.14
2022-01-21T13:07:00,sdl,19.89
2022-01-21T13:08:00,sdl,19.74
2022-01-21T13:09:00,sdl,19.75
2022-01-21T13:10:00,sdl,19.80
2022-01-21T13:11:00,sdl,20.08
2022-01-21T13:12:00,sdl,21.99
2022-01-21T13:13:00,sdl,20.28
2022-01-21T13:14:00,sdl,22.14
2022-01-21T13:15:00,sdl,20.46
2022-01-21T13:16:00,sdl,22.04
2022-01-21T13:17:00,sdl,21.97
2022-01-21T13:18:00,sdl,21.97